Regional Weather Roundup
Issued by NWS Cleveland, OH

Home | Current Version | Previous Version | Text Only | Print | Product List | Glossary On
Versions: 1 2 3 4 5 6 7 8 9 10 11 12 13 14 15 16 17 18 19 20 21 22 23 24 25 26 27 28 29 30 31 32 33 34 35 36 37 38 39 40 41 42 43 44 45 46 47 48 49 50
000
ASUS41 KCLE 271912
RWRCLE
OHIO REGIONAL WEATHER ROUNDUP
NATIONAL WEATHER SERVICE WILMINGTON, OH
300 PM EDT MON MAR 27 2017

NOTE: "FAIR" INDICATES FEW OR NO CLOUDS BELOW 12,000 FEET WITH NO
SIGNIFICANT WEATHER AND/OR OBSTRUCTIONS TO VISIBILITY.

OHZ001>008-015>018-024>027-034-035-043-044-272000-
   NORTHWEST OHIO

CITY           SKY/WX    TMP DP  RH WIND       PRES   REMARKS
DEFIANCE       CLOUDY    58  47  66 SW7       29.92F
FINDLAY        CLOUDY    61  48  62 SW9       29.92F
TOLEDO EXPRESS CLOUDY    58  49  72 SW6       29.92F
TOLEDO EXEC    CLOUDY    59  50  72 S12       29.93F
LIMA           CLOUDY    60  50  69 SW8       29.94F
$$

OHZ009>014-019>023-028>033-038-089-272000-
   NORTHEAST OHIO

CITY           SKY/WX    TMP DP  RH WIND       PRES   REMARKS
CLE-HOPKINS    CLOUDY    61  48  62 SW9       29.96F
CLE-LAKEFRONT  PTSUNNY   56  51  84 NW7       29.93F
CUY CO. ARPT   PTSUNNY   59  54  82 NW9       29.94F
LORAIN-ELYRIA  CLOUDY    59  49  69 W10       29.94F
ASHTABULA      CLOUDY    58  51  78 W9        29.94F
AKRON-CANTON   PTSUNNY   62  47  57 SW14      29.95F
WOOSTER        CLOUDY    60  48  64 W10       29.95F
MANSFIELD      PTSUNNY   60  49  66 SW9       29.95F
YOUNGSTOWN     CLOUDY    62  48  60 SW14      29.93F
$$

OHZ042-051>053-060>062-070>072-077>081-272000-
  SOUTHWEST OHIO

CITY           SKY/WX    TMP DP  RH WIND       PRES   REMARKS
CINC-COVINGTON PTSUNNY   65  54  67 E9        29.91F
CINC-LUNKEN    FAIR      64  54  69 E6        29.91F
HAMILTON       FAIR      64  51  62 SE5       29.91F
DAYTON         CLOUDY    63  48  58 S6        29.93F
WRIGHT-PAT AFB CLOUDY    65  49  56 S5        29.92F
DAYTON GENERAL FAIR      63  50  62 SE5       29.91F
WILMINGTON     CLOUDY    61  51  70 CALM      29.93F
$$

OHZ036-037-039>041-045>050-054>059-063>069-073>076-082>088-272000-
  CENTRAL AND SOUTHEAST OHIO

CITY           SKY/WX    TMP DP  RH WIND       PRES   REMARKS
COLUMBUS       CLOUDY    66  51  58 SW8       29.95F
OSU AIRPORT    FAIR      65  51  60 W8        29.94F
BOLTON FIELD   NOT AVBL
RICKENBACK AFB FAIR      64  51  64 SW9       29.95F
NEWARK         FAIR      63  50  62 SW7       29.94F
MARION         CLOUDY    61  49  64 S9        29.95F
LANCASTER      FAIR      65  51  60 VRB7      29.96F
ZANESVILLE     FAIR      66  48  52 W8G17     29.95F
NEW PHILLY     FAIR      65  50  58 SW9       29.95F
$$




USA.gov is the U.S. government's official web portal to all federal, state and local government web resources and services.